seed: p2v3s48

Total games: 89


  • Filter by # of Players
  • Filter by Score
  • Filter by Variant



ID # of Players Score Variant Date & Time Players
53744 2 30 Rainbow (6 Suits) 2019-09-07 — 21:18:22 UTC lh, Sh
75354 2 30 Rainbow (6 Suits) 2020-01-15 — 07:00:03 UTC fivefives, jwngr
161431 2 30 Rainbow (6 Suits) 2020-05-11 — 03:02:23 UTC Hawlucha, mperera
165602 2 30 Rainbow (6 Suits) 2020-05-14 — 12:36:13 UTC MarkusKahlsen, robense
209444 2 30 Rainbow (6 Suits) 2020-06-17 — 06:26:41 UTC RespectCaviar, schemetrical
212017 2 30 Rainbow (6 Suits) 2020-06-19 — 22:33:34 UTC Isa, pixieawa
339482 2 30 Rainbow (6 Suits) 2020-11-09 — 21:24:39 UTC adikkk, oldgreg
370319 2 30 Rainbow (6 Suits) 2020-12-13 — 22:55:48 UTC etyg, klshen
404322 2 30 Rainbow (6 Suits) 2021-01-15 — 21:00:48 UTC FrozenAnimal, Macsgirl
405947 2 30 Rainbow (6 Suits) 2021-01-17 — 03:23:29 UTC Etherealz, missyalyssi
435983 2 30 Rainbow (6 Suits) 2021-02-13 — 20:51:36 UTC Cornflake62, phred
475892 2 30 Rainbow (6 Suits) 2021-03-21 — 16:06:11 UTC Footscrayzy, Noble
491767 2 30 Rainbow (6 Suits) 2021-04-06 — 02:44:23 UTC hambrenson, veganpecan
542027 2 30 Rainbow (6 Suits) 2021-05-27 — 19:00:52 UTC enkimdu, Ritz1974
542350 2 30 Rainbow (6 Suits) 2021-05-28 — 01:47:41 UTC jean_franc_bleu, loohye
567383 2 30 Rainbow (6 Suits) 2021-06-19 — 05:21:00 UTC rainboy, rickytaco
568262 2 30 Rainbow (6 Suits) 2021-06-20 — 19:14:59 UTC explorerus., raphaeleon
632857 2 30 Rainbow (6 Suits) 2021-09-26 — 01:09:33 UTC Wheatie, wifeofwheatie
636817 2 30 Rainbow (6 Suits) 2021-10-02 — 17:41:18 UTC MarieX, Theklaj
199747 2 29 Rainbow (6 Suits) 2020-06-09 — 02:34:06 UTC Aluap, antitelharsic
334184 2 29 Rainbow (6 Suits) 2020-11-03 — 03:28:22 UTC gsherm, timt
341821 2 29 Rainbow (6 Suits) 2020-11-12 — 21:04:01 UTC gwenhwyfarrr, meeree
438756 2 29 Rainbow (6 Suits) 2021-02-16 — 03:05:49 UTC jasmine, thisisthematt
517549 2 29 Rainbow (6 Suits) 2021-05-01 — 05:26:53 UTC Laure, Shazaaaaam
46074 2 28 Rainbow (6 Suits) 2019-07-13 — 04:07:49 UTC Emily, J3enjamin
148157 2 28 Rainbow (6 Suits) 2020-05-02 — 13:21:47 UTC Dilshaad, Dimithi
266292 2 28 Rainbow (6 Suits) 2020-08-09 — 16:53:12 UTC Lee3, RickSanchez
304917 2 28 Rainbow (6 Suits) 2020-09-23 — 21:53:34 UTC johnboy81918, Stephzheng
314334 2 28 Rainbow (6 Suits) 2020-10-06 — 17:45:51 UTC clspencer, sjforion
579286 2 28 Rainbow (6 Suits) 2021-07-01 — 12:34:32 UTC Helllooooooo, macanek
584728 2 28 Rainbow (6 Suits) 2021-07-08 — 21:23:34 UTC Frozen_Animal_, Macs_girl_
264167 2 27 Rainbow (6 Suits) 2020-08-07 — 11:32:59 UTC higamy, Maestra
359230 2 27 Rainbow (6 Suits) 2020-12-02 — 22:49:12 UTC rea, Skippy
430087 2 27 Rainbow (6 Suits) 2021-02-08 — 17:41:19 UTC lcflorencelo, slyrk
586845 2 27 Rainbow (6 Suits) 2021-07-11 — 17:37:58 UTC JonathanHicks, sole.garcia
606765 2 27 Rainbow (6 Suits) 2021-08-13 — 02:46:24 UTC smallman, timotree
77132 2 26 Rainbow (6 Suits) 2020-01-31 — 00:20:00 UTC Göttertöter, Sharklah
183841 2 26 Rainbow (6 Suits) 2020-05-27 — 19:11:40 UTC Guamo, larki
352522 2 26 Rainbow (6 Suits) 2020-11-24 — 16:03:12 UTC JWFugle, lorenzo1
471257 2 26 Rainbow (6 Suits) 2021-03-17 — 11:41:08 UTC Bjuuti, markus1
507789 2 26 Rainbow (6 Suits) 2021-04-20 — 20:12:24 UTC Frozen_Animal, Macs_girl
613703 2 26 Rainbow (6 Suits) 2021-08-24 — 02:13:48 UTC rabhatia12, tneerukonda
619016 2 26 Rainbow (6 Suits) 2021-09-01 — 15:03:11 UTC lvlotiejus52, motiejus52
317180 2 25 Rainbow (6 Suits) 2020-10-10 — 06:04:20 UTC heftych1, kimgannon
578539 2 25 Rainbow (6 Suits) 2021-06-30 — 19:01:43 UTC ajsehifowha, dunes1
156112 2 24 Rainbow (6 Suits) 2020-05-07 — 19:32:24 UTC DrJones, scharkbite
399757 2 23 Rainbow (6 Suits) 2021-01-11 — 02:18:13 UTC hu.man01, Stradguy1
5434 2 0 Rainbow (6 Suits) 2018-04-21 — 20:11:08 UTC Libster, Zamiel
5503 2 0 Rainbow (6 Suits) 2018-04-23 — 18:01:37 UTC florrat2, postmans
59015 2 0 Rainbow (6 Suits) 2019-10-15 — 20:42:41 UTC heddav, krim_haram
64662 2 0 Rainbow (6 Suits) 2019-11-15 — 09:44:31 UTC Dr_Kakashi, RaKXeR
72927 2 0 Rainbow (6 Suits) 2019-12-27 — 02:57:10 UTC annalee, jean
95330 2 0 Rainbow (6 Suits) 2020-03-23 — 20:51:41 UTC anto.mazzo, mauro
120742 2 0 Rainbow (6 Suits) 2020-04-13 — 20:26:48 UTC dewey, liwei
121264 2 0 Rainbow (6 Suits) 2020-04-14 — 02:22:40 UTC alisun, bfichera
125644 2 0 Rainbow (6 Suits) 2020-04-17 — 19:10:34 UTC ctetu, math444
131914 2 0 Rainbow (6 Suits) 2020-04-21 — 18:25:32 UTC bornagy, nandu13
139359 2 0 Rainbow (6 Suits) 2020-04-26 — 13:45:09 UTC Joost, Thomas1234
140108 2 0 Rainbow (6 Suits) 2020-04-26 — 22:17:20 UTC khushi, neerav
151129 2 0 Rainbow (6 Suits) 2020-05-04 — 02:05:52 UTC WadeYao, YYF
161391 2 0 Rainbow (6 Suits) 2020-05-11 — 02:30:59 UTC abhishek, paperairplane69
162799 2 0 Rainbow (6 Suits) 2020-05-12 — 05:10:30 UTC jalmenda, zmill415
181483 2 0 Rainbow (6 Suits) 2020-05-25 — 19:01:06 UTC Allemoor, Kilkame
181895 2 0 Rainbow (6 Suits) 2020-05-26 — 01:15:03 UTC Axineld, rfrank27
186594 2 0 Rainbow (6 Suits) 2020-05-29 — 20:45:08 UTC Crivens_Temp, eliyahu
192260 2 0 Rainbow (6 Suits) 2020-06-03 — 03:35:34 UTC buxtehude11, yeeclaw
196589 2 0 Rainbow (6 Suits) 2020-06-06 — 19:41:48 UTC opurtell, pfinley
202310 2 0 Rainbow (6 Suits) 2020-06-11 — 04:06:32 UTC annieboboh, penguin69
234863 2 0 Rainbow (6 Suits) 2020-07-10 — 04:52:12 UTC aridante, nostalgiccat
238623 2 0 Rainbow (6 Suits) 2020-07-13 — 23:44:43 UTC antizoubilamaka, link825
286443 2 0 Rainbow (6 Suits) 2020-09-01 — 19:22:48 UTC ihavenoidea, VerySloppyTwo
314390 2 0 Rainbow (6 Suits) 2020-10-06 — 19:34:48 UTC choonabi, ClandestineClue
352306 2 0 Rainbow (6 Suits) 2020-11-24 — 04:38:43 UTC mrpoopybutthole, Mrspoopy
401421 2 0 Rainbow (6 Suits) 2021-01-12 — 22:35:38 UTC helicopter, ichaelm
404745 2 0 Rainbow (6 Suits) 2021-01-16 — 03:57:07 UTC mmsieth, taylos3
404941 2 0 Rainbow (6 Suits) 2021-01-16 — 06:03:46 UTC socerman, tacobot5000
406245 2 0 Rainbow (6 Suits) 2021-01-17 — 08:54:39 UTC Cold, Shad_Crow
416680 2 0 Rainbow (6 Suits) 2021-01-27 — 20:26:29 UTC Fuuut, gapiedaan
443142 2 0 Rainbow (6 Suits) 2021-02-20 — 13:42:53 UTC jule_2000, wiedervergessen
447660 2 0 Rainbow (6 Suits) 2021-02-24 — 12:33:40 UTC paari, thepeperon
456188 2 0 Rainbow (6 Suits) 2021-03-04 — 07:31:11 UTC Lampz, Mage
613427 2 0 Rainbow (6 Suits) 2021-08-23 — 20:21:37 UTC Charles123123, wardsux1
616126 2 0 Rainbow (6 Suits) 2021-08-27 — 20:40:35 UTC shocksteel, taptothebeat1
620001 2 0 Rainbow (6 Suits) 2021-09-02 — 18:05:55 UTC asdasdasda, JTJTJTJTJT
622651 2 0 Rainbow (6 Suits) 2021-09-07 — 11:27:01 UTC AJNOLAN95, DaVeryGoodWaaan
630555 2 0 Rainbow (6 Suits) 2021-09-21 — 20:31:36 UTC Sghcg, TJTJTJJTTJ
639569 2 0 Rainbow (6 Suits) 2021-10-07 — 19:37:31 UTC potato_laptop, wardsux2
642320 2 0 Rainbow (6 Suits) 2021-10-12 — 20:56:58 UTC HiIIIHIII, sgafsa
646378 2 0 Rainbow (6 Suits) 2021-10-20 — 19:12:07 UTC JJTJTJTT, kads